Time,TemperatureF,DewpointF,PressureIn,WindDirection,WindDirectionDegrees,WindSpeedMPH,WindSpeedGustMPH,Humidity,HourlyPrecipIn,Conditions,Clouds,dailyrainin,SoftwareType,DateUTC
2013-08-09 00:01:00,78.2,73.0,30.00,SE,130,0.0,3.0,84,0.00,,,0.00,VWS V14.01,2013-08-09 04:01:00,
2013-08-09 00:06:00,78.2,73.0,30.00,SSE,147,1.0,2.0,84,0.00,,,0.00,VWS V14.01,2013-08-09 04:06:00,
2013-08-09 00:11:00,78.1,72.9,30.00,SE,136,2.0,2.0,84,0.00,,,0.00,VWS V14.01,2013-08-09 04:11:00,
2013-08-09 00:16:00,78.1,73.2,30.00,ESE,121,3.0,4.0,85,0.00,,,0.00,VWS V14.01,2013-08-09 04:16:00,
2013-08-09 00:21:00,77.9,73.0,30.00,SSW,192,1.0,4.0,85,0.00,,,0.00,VWS V14.01,2013-08-09 04:21:00,
2013-08-09 00:26:00,77.7,73.2,30.00,ESE,114,3.0,4.0,86,0.00,,,0.00,VWS V14.01,2013-08-09 04:26:00,
2013-08-09 00:31:00,77.5,73.0,30.00,SE,130,2.0,5.0,86,0.00,,,0.00,VWS V14.01,2013-08-09 04:31:00,
2013-08-09 00:36:00,77.4,73.2,30.00,SSE,155,2.0,2.0,87,0.00,,,0.00,VWS V14.01,2013-08-09 04:36:00,
2013-08-09 00:41:00,77.2,73.0,30.00,SE,146,0.0,3.0,87,0.00,,,0.00,VWS V14.01,2013-08-09 04:41:00,
2013-08-09 00:46:00,77.1,73.3,30.00,SE,130,1.0,3.0,88,0.00,,,0.00,VWS V14.01,2013-08-09 04:46:00,
2013-08-09 00:51:00,77.0,73.2,30.00,SSE,148,1.0,3.0,88,0.00,,,0.00,VWS V14.01,2013-08-09 04:51:00,
2013-08-09 00:56:00,76.9,73.1,30.00,SSE,167,0.0,3.0,88,0.00,,,0.00,VWS V14.01,2013-08-09 04:56:00,
2013-08-09 01:01:00,76.8,73.3,30.00,SSE,149,1.0,3.0,89,0.00,,,0.00,VWS V14.01,2013-08-09 05:01:00,
2013-08-09 01:06:00,76.7,73.2,30.00,SE,146,0.0,1.0,89,0.00,,,0.00,VWS V14.01,2013-08-09 05:06:00,
2013-08-09 01:11:00,76.6,73.1,30.00,ESE,117,2.0,3.0,89,0.00,,,0.00,VWS V14.01,2013-08-09 05:11:00,
2013-08-09 01:16:00,76.6,73.4,30.00,South,188,1.0,3.0,90,0.00,,,0.00,VWS V14.01,2013-08-09 05:16:00,
2013-08-09 01:21:00,76.6,73.4,30.00,SE,136,0.0,3.0,90,0.00,,,0.00,VWS V14.01,2013-08-09 05:21:00,
2013-08-09 01:26:00,76.6,73.4,30.00,SW,225,1.0,3.0,90,0.00,,,0.00,VWS V14.01,2013-08-09 05:26:00,
2013-08-09 01:31:00,76.7,73.6,30.00,WSW,240,1.0,3.0,90,0.00,,,0.00,VWS V14.01,2013-08-09 05:31:00,
2013-08-09 01:36:00,76.7,73.6,30.00,SSE,167,0.0,1.0,90,0.00,,,0.00,VWS V14.01,2013-08-09 05:36:00,
2013-08-09 01:41:00,76.8,73.7,30.00,South,188,0.0,1.0,90,0.00,,,0.00,VWS V14.01,2013-08-09 05:41:00,
2013-08-09 01:46:00,76.7,73.6,30.00,SW,232,0.0,1.0,90,0.00,,,0.00,VWS V14.01,2013-08-09 05:46:00,
2013-08-09 01:51:00,76.7,73.6,30.00,SW,229,1.0,2.0,90,0.00,,,0.00,VWS V14.01,2013-08-09 05:51:00,
2013-08-09 01:56:00,76.7,73.6,30.00,SW,225,0.0,2.0,90,0.00,,,0.00,VWS V14.01,2013-08-09 05:56:00,
2013-08-09 02:01:00,76.7,73.6,30.00,SW,236,2.0,2.0,90,0.00,,,0.00,VWS V14.01,2013-08-09 06:01:00,
2013-08-09 02:06:00,76.7,73.6,30.00,WSW,252,0.0,2.0,90,0.00,,,0.00,VWS V14.01,2013-08-09 06:06:00,
2013-08-09 02:11:00,76.7,73.6,30.00,SW,215,0.0,4.0,90,0.00,,,0.00,VWS V14.01,2013-08-09 06:11:00,
2013-08-09 02:16:00,76.7,73.6,30.00,SSW,207,0.0,4.0,90,0.00,,,0.00,VWS V14.01,2013-08-09 06:16:00,
2013-08-09 02:21:00,76.8,73.7,29.99,South,191,0.0,4.0,90,0.00,,,0.00,VWS V14.01,2013-08-09 06:21:00,
2013-08-09 02:26:00,76.7,73.6,29.99,SSW,209,1.0,4.0,90,0.00,,,0.00,VWS V14.01,2013-08-09 06:26:00,
2013-08-09 02:31:00,76.7,73.6,29.99,WSW,238,1.0,4.0,90,0.00,,,0.00,VWS V14.01,2013-08-09 06:31:00,
2013-08-09 02:36:00,76.7,73.9,29.99,SSW,211,0.0,3.0,91,0.00,,,0.00,VWS V14.01,2013-08-09 06:36:00,
2013-08-09 02:41:00,76.7,73.9,29.99,SW,226,1.0,3.0,91,0.00,,,0.00,VWS V14.01,2013-08-09 06:41:00,
2013-08-09 02:46:00,76.7,73.9,29.99,WSW,239,0.0,3.0,91,0.00,,,0.00,VWS V14.01,2013-08-09 06:46:00,
2013-08-09 02:51:00,76.6,73.8,29.99,SW,234,1.0,4.0,91,0.00,,,0.00,VWS V14.01,2013-08-09 06:51:00,
2013-08-09 02:56:00,76.6,73.8,29.99,SW,223,0.0,4.0,91,0.00,,,0.00,VWS V14.01,2013-08-09 06:56:00,
2013-08-09 03:01:00,76.5,73.7,29.99,WSW,240,0.0,4.0,91,0.00,,,0.00,VWS V14.01,2013-08-09 07:01:00,
2013-08-09 03:06:00,76.4,73.6,29.99,SSW,210,2.0,2.0,91,0.00,,,0.00,VWS V14.01,2013-08-09 07:06:00,
2013-08-09 03:11:00,76.3,73.8,29.99,ESE,108,0.0,3.0,92,0.00,,,0.00,VWS V14.01,2013-08-09 07:11:00,
2013-08-09 03:16:00,76.2,73.7,29.99,South,175,0.0,3.0,92,0.00,,,0.00,VWS V14.01,2013-08-09 07:16:00,
2013-08-09 03:21:00,76.2,73.7,29.99,SW,234,1.0,3.0,92,0.00,,,0.00,VWS V14.01,2013-08-09 07:21:00,
2013-08-09 03:26:00,76.1,73.6,29.98,SW,229,0.0,3.0,92,0.00,,,0.00,VWS V14.01,2013-08-09 07:26:00,
2013-08-09 03:31:00,76.1,73.6,29.99,SW,227,2.0,3.0,92,0.00,,,0.00,VWS V14.01,2013-08-09 07:31:00,
2013-08-09 03:36:00,76.0,73.5,29.99,SW,218,0.0,2.0,92,0.00,,,0.00,VWS V14.01,2013-08-09 07:36:00,
2013-08-09 03:41:00,76.0,73.5,29.99,WSW,241,0.0,3.0,92,0.00,,,0.00,VWS V14.01,2013-08-09 07:41:00,
2013-08-09 03:46:00,76.0,73.5,29.99,WSW,249,0.0,4.0,92,0.00,,,0.00,VWS V14.01,2013-08-09 07:46:00,
2013-08-09 03:51:00,75.9,73.4,29.99,WSW,238,1.0,4.0,92,0.00,,,0.00,VWS V14.01,2013-08-09 07:51:00,
2013-08-09 03:56:00,75.9,73.4,29.99,WSW,254,0.0,4.0,92,0.00,,,0.00,VWS V14.01,2013-08-09 07:56:00,
2013-08-09 04:01:00,75.9,73.4,29.99,WSW,249,0.0,4.0,92,0.00,,,0.00,VWS V14.01,2013-08-09 08:01:00,
2013-08-09 04:06:00,75.8,73.3,29.99,WSW,237,1.0,2.0,92,0.00,,,0.00,VWS V14.01,2013-08-09 08:06:00,
2013-08-09 04:11:00,75.8,73.3,30.00,SW,223,2.0,4.0,92,0.00,,,0.00,VWS V14.01,2013-08-09 08:11:00,
2013-08-09 04:16:00,75.7,73.2,30.00,SW,232,1.0,4.0,92,0.00,,,0.00,VWS V14.01,2013-08-09 08:16:00,
2013-08-09 04:21:00,75.7,73.2,30.00,SW,218,0.0,4.0,92,0.00,,,0.00,VWS V14.01,2013-08-09 08:21:00,
2013-08-09 04:26:00,75.6,73.1,30.00,SW,234,1.0,4.0,92,0.00,,,0.00,VWS V14.01,2013-08-09 08:26:00,
2013-08-09 04:31:00,75.6,73.1,30.00,SW,222,2.0,4.0,92,0.00,,,0.00,VWS V14.01,2013-08-09 08:31:00,
2013-08-09 04:36:00,75.6,73.4,30.00,SW,236,2.0,2.0,93,0.00,,,0.00,VWS V14.01,2013-08-09 08:36:00,
2013-08-09 04:41:00,75.5,73.3,30.00,WSW,251,1.0,2.0,93,0.00,,,0.00,VWS V14.01,2013-08-09 08:41:00,
2013-08-09 04:46:00,75.5,73.3,30.00,WSW,245,0.0,2.0,93,0.00,,,0.00,VWS V14.01,2013-08-09 08:46:00,
2013-08-09 04:51:00,75.5,73.3,30.00,SSW,213,0.0,2.0,93,0.00,,,0.00,VWS V14.01,2013-08-09 08:51:00,
2013-08-09 04:56:00,75.4,73.2,30.00,WSW,238,0.0,2.0,93,0.00,,,0.00,VWS V14.01,2013-08-09 08:56:00,
2013-08-09 05:01:00,75.3,73.1,30.00,West,261,1.0,2.0,93,0.00,,,0.00,VWS V14.01,2013-08-09 09:01:00,
2013-08-09 05:06:00,75.3,73.1,30.00,SW,215,1.0,1.0,93,0.00,,,0.00,VWS V14.01,2013-08-09 09:06:00,
2013-08-09 05:11:00,75.2,73.0,30.00,SW,222,0.0,1.0,93,0.00,,,0.00,VWS V14.01,2013-08-09 09:11:00,
2013-08-09 05:16:00,75.1,72.9,30.00,WSW,241,0.0,1.0,93,0.00,,,0.00,VWS V14.01,2013-08-09 09:16:00,
2013-08-09 05:21:00,75.1,72.9,30.00,SW,229,0.0,1.0,93,0.00,,,0.00,VWS V14.01,2013-08-09 09:21:00,
2013-08-09 05:26:00,75.1,72.9,30.00,SSW,202,0.0,2.0,93,0.00,,,0.00,VWS V14.01,2013-08-09 09:26:00,
2013-08-09 05:31:00,75.1,73.3,30.00,WSW,256,1.0,2.0,94,0.00,,,0.00,VWS V14.01,2013-08-09 09:31:00,
2013-08-09 05:36:00,75.0,73.2,30.00,WSW,241,2.0,2.0,94,0.00,,,0.00,VWS V14.01,2013-08-09 09:36:00,
2013-08-09 05:41:00,75.0,73.2,30.00,WSW,252,0.0,2.0,94,0.00,,,0.00,VWS V14.01,2013-08-09 09:41:00,
2013-08-09 05:46:00,75.0,73.2,30.00,SW,226,0.0,2.0,94,0.00,,,0.00,VWS V14.01,2013-08-09 09:46:00,
2013-08-09 05:51:00,75.0,73.2,30.00,SW,226,0.0,2.0,94,0.00,,,0.00,VWS V14.01,2013-08-09 09:51:00,
2013-08-09 05:56:00,75.0,73.2,30.01,SW,227,0.0,2.0,94,0.00,,,0.00,VWS V14.01,2013-08-09 09:56:00,
2013-08-09 06:01:00,75.0,73.2,30.01,SW,221,0.0,2.0,94,0.00,,,0.00,VWS V14.01,2013-08-09 10:01:00,
2013-08-09 06:06:00,74.9,73.1,30.01,SW,225,0.0,1.0,94,0.00,,,0.00,VWS V14.01,2013-08-09 10:06:00,
2013-08-09 06:11:00,74.9,73.1,30.01,SW,225,0.0,1.0,94,0.00,,,0.00,VWS V14.01,2013-08-09 10:11:00,
2013-08-09 06:16:00,74.9,73.1,30.01,WSW,257,0.0,1.0,94,0.00,,,0.00,VWS V14.01,2013-08-09 10:16:00,
2013-08-09 06:21:00,74.9,73.1,30.01,SW,222,0.0,1.0,94,0.00,,,0.00,VWS V14.01,2013-08-09 10:21:00,
2013-08-09 06:26:00,74.9,73.1,30.01,WSW,240,0.0,2.0,94,0.00,,,0.00,VWS V14.01,2013-08-09 10:26:00,
2013-08-09 06:31:00,74.9,73.1,30.02,SW,225,0.0,2.0,94,0.00,,,0.00,VWS V14.01,2013-08-09 10:31:00,
2013-08-09 06:36:00,74.9,73.1,30.02,WSW,252,1.0,1.0,94,0.00,,,0.00,VWS V14.01,2013-08-09 10:36:00,
2013-08-09 06:41:00,74.9,73.1,30.01,SW,225,0.0,1.0,94,0.00,,,0.00,VWS V14.01,2013-08-09 10:41:00,
2013-08-09 06:46:00,74.9,73.1,30.02,SW,226,1.0,1.0,94,0.00,,,0.00,VWS V14.01,2013-08-09 10:46:00,
2013-08-09 06:51:00,74.9,73.1,30.02,SW,223,1.0,1.0,94,0.00,,,0.00,VWS V14.01,2013-08-09 10:51:00,
2013-08-09 06:56:00,75.0,73.2,30.02,SW,218,0.0,2.0,94,0.00,,,0.00,VWS V14.01,2013-08-09 10:56:00,
2013-08-09 07:01:00,75.0,73.2,30.02,SSW,210,0.0,2.0,94,0.00,,,0.00,VWS V14.01,2013-08-09 11:01:00,
2013-08-09 07:06:00,75.1,73.3,30.02,SW,226,0.0,1.0,94,0.00,,,0.00,VWS V14.01,2013-08-09 11:06:00,
2013-08-09 07:11:00,75.3,73.5,30.02,SW,225,0.0,1.0,94,0.00,,,0.00,VWS V14.01,2013-08-09 11:11:00,
2013-08-09 07:16:00,75.4,73.6,30.02,WSW,243,0.0,3.0,94,0.00,,,0.00,VWS V14.01,2013-08-09 11:16:00,
2013-08-09 07:21:00,75.6,73.4,30.02,SSW,206,0.0,3.0,93,0.00,,,0.00,VWS V14.01,2013-08-09 11:21:00,
2013-08-09 07:26:00,75.7,73.5,30.02,SW,218,0.0,3.0,93,0.00,,,0.00,VWS V14.01,2013-08-09 11:26:00,
2013-08-09 07:31:00,75.8,73.6,30.02,SW,223,0.0,3.0,93,0.00,,,0.00,VWS V14.01,2013-08-09 11:31:00,
2013-08-09 07:36:00,76.1,73.9,30.02,SW,234,1.0,1.0,93,0.00,,,0.00,VWS V14.01,2013-08-09 11:36:00,
2013-08-09 07:41:00,76.2,73.7,30.02,SW,223,0.0,2.0,92,0.00,,,0.00,VWS V14.01,2013-08-09 11:41:00,
2013-08-09 07:46:00,76.5,74.0,30.02,SW,229,0.0,2.0,92,0.00,,,0.00,VWS V14.01,2013-08-09 11:46:00,
2013-08-09 07:51:00,76.8,74.0,30.02,SW,234,3.0,3.0,91,0.00,,,0.00,VWS V14.01,2013-08-09 11:51:00,
2013-08-09 07:56:00,77.1,74.3,30.02,SW,230,1.0,3.0,91,0.00,,,0.00,VWS V14.01,2013-08-09 11:56:00,
2013-08-09 08:01:00,77.3,74.5,30.02,SSW,206,2.0,3.0,91,0.00,,,0.00,VWS V14.01,2013-08-09 12:01:00,
2013-08-09 08:06:00,77.8,75.0,30.02,WSW,238,0.0,2.0,91,0.00,,,0.00,VWS V14.01,2013-08-09 12:06:00,
2013-08-09 08:11:00,78.1,74.9,30.02,SW,223,0.0,2.0,90,0.00,,,0.00,VWS V14.01,2013-08-09 12:11:00,
2013-08-09 08:16:00,78.2,74.7,30.02,SW,229,1.0,3.0,89,0.00,,,0.00,VWS V14.01,2013-08-09 12:16:00,
2013-08-09 08:21:00,78.6,75.1,30.02,WSW,249,2.0,3.0,89,0.00,,,0.00,VWS V14.01,2013-08-09 12:21:00,
2013-08-09 08:26:00,78.6,75.1,30.02,SW,217,0.0,4.0,89,0.00,,,0.00,VWS V14.01,2013-08-09 12:26:00,
2013-08-09 08:31:00,78.9,75.4,30.02,SW,221,2.0,4.0,89,0.00,,,0.00,VWS V14.01,2013-08-09 12:31:00,
2013-08-09 08:36:00,79.3,75.4,30.02,WSW,238,3.0,5.0,88,0.00,,,0.00,VWS V14.01,2013-08-09 12:36:00,
2013-08-09 08:41:00,79.4,75.2,30.02,WSW,245,2.0,5.0,87,0.00,,,0.00,VWS V14.01,2013-08-09 12:41:00,
2013-08-09 08:46:00,79.8,75.9,30.02,SW,223,1.0,5.0,88,0.00,,,0.00,VWS V14.01,2013-08-09 12:46:00,
2013-08-09 08:51:00,80.5,75.9,30.02,SSW,211,0.0,5.0,86,0.00,,,0.00,VWS V14.01,2013-08-09 12:51:00,
2013-08-09 08:56:00,81.2,76.3,30.02,WNW,290,2.0,5.0,85,0.00,,,0.00,VWS V14.01,2013-08-09 12:56:00,
2013-08-09 09:01:00,81.1,76.2,30.02,WSW,244,3.0,5.0,85,0.00,,,0.00,VWS V14.01,2013-08-09 13:01:00,
2013-08-09 09:06:00,81.1,76.2,30.02,South,184,1.0,3.0,85,0.00,,,0.00,VWS V14.01,2013-08-09 13:06:00,
2013-08-09 09:11:00,80.9,76.0,30.02,WNW,283,2.0,5.0,85,0.00,,,0.00,VWS V14.01,2013-08-09 13:11:00,
2013-08-09 09:16:00,80.9,76.0,30.02,SW,227,2.0,6.0,85,0.00,,,0.00,VWS V14.01,2013-08-09 13:16:00,
2013-08-09 09:21:00,81.1,76.2,30.02,SSE,166,1.0,6.0,85,0.00,,,0.00,VWS V14.01,2013-08-09 13:21:00,
2013-08-09 09:26:00,81.5,76.2,30.02,WSW,238,2.0,6.0,84,0.00,,,0.00,VWS V14.01,2013-08-09 13:26:00,
2013-08-09 09:31:00,81.8,76.1,30.02,WSW,249,3.0,6.0,83,0.00,,,0.00,VWS V14.01,2013-08-09 13:31:00,
2013-08-09 09:36:00,81.8,76.5,30.03,SSW,209,0.0,2.0,84,0.00,,,0.00,VWS V14.01,2013-08-09 13:36:00,
2013-08-09 09:41:00,82.1,76.4,30.03,WNW,291,2.0,4.0,83,0.00,,,0.00,VWS V14.01,2013-08-09 13:41:00,
2013-08-09 09:46:00,82.3,77.0,30.02,WSW,242,2.0,4.0,84,0.00,,,0.00,VWS V14.01,2013-08-09 13:46:00,
2013-08-09 09:51:00,82.3,76.3,30.02,WSW,252,1.0,5.0,82,0.00,,,0.00,VWS V14.01,2013-08-09 13:51:00,
2013-08-09 09:56:00,82.4,77.1,30.03,WSW,237,0.0,5.0,84,0.00,,,0.00,VWS V14.01,2013-08-09 13:56:00,
2013-08-09 10:01:00,82.8,76.8,30.03,WSW,245,1.0,5.0,82,0.00,,,0.00,VWS V14.01,2013-08-09 14:01:00,
2013-08-09 10:06:00,83.3,76.9,30.03,West,263,1.0,2.0,81,0.00,,,0.00,VWS V14.01,2013-08-09 14:06:00,
2013-08-09 10:11:00,83.8,77.3,30.03,WSW,257,1.0,3.0,81,0.00,,,0.00,VWS V14.01,2013-08-09 14:11:00,
2013-08-09 10:16:00,84.6,77.4,30.03,NNW,331,0.0,3.0,79,0.00,,,0.00,VWS V14.01,2013-08-09 14:16:00,
2013-08-09 10:21:00,84.3,76.3,30.03,West,265,3.0,6.0,77,0.00,,,0.00,VWS V14.01,2013-08-09 14:21:00,
2013-08-09 10:26:00,83.9,76.7,30.03,WSW,246,3.0,6.0,79,0.00,,,0.00,VWS V14.01,2013-08-09 14:26:00,
2013-08-09 10:31:00,84.3,77.1,30.03,SW,232,2.0,6.0,79,0.00,,,0.00,VWS V14.01,2013-08-09 14:31:00,
2013-08-09 10:36:00,84.4,76.4,30.03,SW,230,2.0,3.0,77,0.00,,,0.00,VWS V14.01,2013-08-09 14:36:00,
2013-08-09 10:41:00,84.9,77.3,30.03,West,281,1.0,4.0,78,0.00,,,0.00,VWS V14.01,2013-08-09 14:41:00,
2013-08-09 10:46:00,85.2,76.8,30.04,WSW,241,2.0,5.0,76,0.00,,,0.00,VWS V14.01,2013-08-09 14:46:00,
2013-08-09 10:51:00,85.0,77.0,30.04,West,272,1.0,6.0,77,0.00,,,0.00,VWS V14.01,2013-08-09 14:51:00,
2013-08-09 10:56:00,85.0,76.2,30.04,SW,221,3.0,6.0,75,0.00,,,0.00,VWS V14.01,2013-08-09 14:56:00,
2013-08-09 11:01:00,85.0,76.6,30.04,SW,233,4.0,6.0,76,0.00,,,0.00,VWS V14.01,2013-08-09 15:01:00,
2013-08-09 11:06:00,85.2,76.4,30.04,WSW,246,1.0,3.0,75,0.00,,,0.00,VWS V14.01,2013-08-09 15:06:00,
2013-08-09 11:11:00,85.5,76.7,30.04,SSW,213,1.0,5.0,75,0.00,,,0.00,VWS V14.01,2013-08-09 15:11:00,
2013-08-09 11:16:00,85.2,76.4,30.04,WSW,245,1.0,6.0,75,0.00,,,0.00,VWS V14.01,2013-08-09 15:16:00,
2013-08-09 11:21:00,85.3,76.1,30.04,WSW,256,3.0,6.0,74,0.00,,,0.00,VWS V14.01,2013-08-09 15:21:00,
2013-08-09 11:26:00,85.0,75.8,30.04,SSW,199,1.0,6.0,74,0.00,,,0.00,VWS V14.01,2013-08-09 15:26:00,
2013-08-09 11:31:00,85.2,76.8,30.03,WSW,256,0.0,6.0,76,0.00,,,0.00,VWS V14.01,2013-08-09 15:31:00,
2013-08-09 11:36:00,86.1,77.2,30.03,WSW,246,3.0,4.0,75,0.00,,,0.00,VWS V14.01,2013-08-09 15:36:00,
2013-08-09 11:41:00,86.5,77.2,30.03,SSW,199,0.0,4.0,74,0.00,,,0.00,VWS V14.01,2013-08-09 15:41:00,
2013-08-09 11:46:00,87.0,76.9,30.03,WSW,246,0.0,5.0,72,0.00,,,0.00,VWS V14.01,2013-08-09 15:46:00,
2013-08-09 11:51:00,88.0,77.4,30.03,WSW,244,2.0,5.0,71,0.00,,,0.00,VWS V14.01,2013-08-09 15:51:00,
2013-08-09 11:56:00,87.7,76.7,30.03,SW,224,2.0,6.0,70,0.00,,,0.00,VWS V14.01,2013-08-09 15:56:00,
2013-08-09 12:01:00,87.7,76.7,30.03,SW,234,3.0,7.0,70,0.00,,,0.00,VWS V14.01,2013-08-09 16:01:00,
2013-08-09 12:06:00,87.7,76.7,30.03,West,273,1.0,2.0,70,0.00,,,0.00,VWS V14.01,2013-08-09 16:06:00,
2013-08-09 12:11:00,87.9,76.9,30.03,SSW,205,0.0,3.0,70,0.00,,,0.00,VWS V14.01,2013-08-09 16:11:00,
2013-08-09 12:16:00,87.9,77.3,30.03,WNW,286,3.0,3.0,71,0.00,,,0.00,VWS V14.01,2013-08-09 16:16:00,
2013-08-09 12:20:00,88.3,77.7,30.03,WSW,237,3.0,4.0,71,0.00,,,0.00,VWS V14.01,2013-08-09 16:20:00,
2013-08-09 12:25:00,88.6,76.7,30.02,SW,223,1.0,6.0,68,0.00,,,0.00,VWS V14.01,2013-08-09 16:25:00,
2013-08-09 12:30:00,88.8,76.4,30.02,SSW,207,2.0,6.0,67,0.00,,,0.00,VWS V14.01,2013-08-09 16:30:00,
2013-08-09 12:35:00,88.7,76.3,30.02,West,266,4.0,6.0,67,0.00,,,0.00,VWS V14.01,2013-08-09 16:35:00,
2013-08-09 12:40:00,88.7,76.3,30.02,West,276,3.0,6.0,67,0.00,,,0.00,VWS V14.01,2013-08-09 16:40:00,
2013-08-09 12:45:00,89.1,76.7,30.02,WSW,240,2.0,6.0,67,0.00,,,0.00,VWS V14.01,2013-08-09 16:45:00,
2013-08-09 12:50:00,89.0,76.2,30.02,WNW,287,2.0,6.0,66,0.00,,,0.00,VWS V14.01,2013-08-09 16:50:00,
2013-08-09 12:55:00,89.0,76.2,30.02,SW,236,3.0,6.0,66,0.00,,,0.00,VWS V14.01,2013-08-09 16:55:00,
2013-08-09 13:00:00,89.0,76.2,30.02,WSW,244,1.0,6.0,66,0.00,,,0.00,VWS V14.01,2013-08-09 17:00:00,
2013-08-09 13:05:00,89.0,75.7,30.02,WSW,253,2.0,5.0,65,0.00,,,0.00,VWS V14.01,2013-08-09 17:05:00,
2013-08-09 13:10:00,88.8,75.5,30.02,WSW,241,2.0,5.0,65,0.00,,,0.00,VWS V14.01,2013-08-09 17:10:00,
2013-08-09 13:15:00,88.8,76.4,30.01,West,261,2.0,6.0,67,0.00,,,0.00,VWS V14.01,2013-08-09 17:15:00,
2013-08-09 13:20:00,89.0,76.2,30.01,SW,229,3.0,6.0,66,0.00,,,0.00,VWS V14.01,2013-08-09 17:20:00,
2013-08-09 13:25:00,89.5,76.2,30.01,SSW,211,1.0,6.0,65,0.00,,,0.00,VWS V14.01,2013-08-09 17:25:00,
2013-08-09 13:30:00,89.9,76.1,30.01,SSW,213,3.0,6.0,64,0.00,,,0.00,VWS V14.01,2013-08-09 17:30:00,
2013-08-09 13:35:00,90.0,75.7,30.01,West,268,1.0,3.0,63,0.00,,,0.00,VWS V14.01,2013-08-09 17:35:00,
2013-08-09 13:40:00,89.8,76.5,30.01,SW,225,1.0,5.0,65,0.00,,,0.00,VWS V14.01,2013-08-09 17:40:00,
2013-08-09 13:45:00,89.4,76.1,30.01,WSW,246,3.0,5.0,65,0.00,,,0.00,VWS V14.01,2013-08-09 17:45:00,
2013-08-09 13:50:00,89.0,76.6,30.01,SW,225,3.0,5.0,67,0.00,,,0.00,VWS V14.01,2013-08-09 17:50:00,
2013-08-09 13:55:00,88.8,76.4,30.01,SW,233,2.0,5.0,67,0.00,,,0.00,VWS V14.01,2013-08-09 17:55:00,
2013-08-09 14:00:00,88.8,76.9,30.01,WSW,254,1.0,5.0,68,0.00,,,0.00,VWS V14.01,2013-08-09 18:00:00,
2013-08-09 14:05:00,89.3,76.9,30.01,WSW,246,1.0,3.0,67,0.00,,,0.00,VWS V14.01,2013-08-09 18:05:00,
2013-08-09 14:10:00,89.3,76.0,30.01,SW,221,4.0,4.0,65,0.00,,,0.00,VWS V14.01,2013-08-09 18:10:00,
2013-08-09 14:15:00,89.4,76.6,30.00,NW,324,0.0,5.0,66,0.00,,,0.00,VWS V14.01,2013-08-09 18:15:00,
2013-08-09 14:20:00,89.5,75.7,30.00,WSW,240,3.0,7.0,64,0.00,,,0.00,VWS V14.01,2013-08-09 18:20:00,
2013-08-09 14:25:00,89.9,77.0,30.00,WSW,244,2.0,7.0,66,0.00,,,0.00,VWS V14.01,2013-08-09 18:25:00,
2013-08-09 14:30:00,89.8,76.9,30.00,SW,222,2.0,7.0,66,0.00,,,0.00,VWS V14.01,2013-08-09 18:30:00,
2013-08-09 14:35:00,89.6,76.7,30.00,WSW,241,2.0,3.0,66,0.00,,,0.00,VWS V14.01,2013-08-09 18:35:00,
2013-08-09 14:40:00,88.9,76.5,30.00,SSW,200,3.0,4.0,67,0.00,,,0.00,VWS V14.01,2013-08-09 18:40:00,
2013-08-09 14:45:00,88.2,75.9,30.00,West,260,2.0,5.0,67,0.00,,,0.00,VWS V14.01,2013-08-09 18:45:00,
2013-08-09 14:50:00,88.3,76.4,30.00,WSW,249,2.0,5.0,68,0.00,,,0.00,VWS V14.01,2013-08-09 18:50:00,
2013-08-09 14:55:00,89.0,77.1,30.00,SE,141,2.0,5.0,68,0.00,,,0.00,VWS V14.01,2013-08-09 18:55:00,
2013-08-09 15:00:00,89.3,76.9,30.00,SSW,213,2.0,6.0,67,0.00,,,0.00,VWS V14.01,2013-08-09 19:00:00,
2013-08-09 15:05:00,89.7,77.3,30.00,SW,216,1.0,3.0,67,0.00,,,0.00,VWS V14.01,2013-08-09 19:05:00,
2013-08-09 15:10:00,89.6,75.8,30.00,SW,232,4.0,4.0,64,0.00,,,0.00,VWS V14.01,2013-08-09 19:10:00,
2013-08-09 15:15:00,89.5,76.7,29.99,NNE,32,1.0,4.0,66,0.00,,,0.00,VWS V14.01,2013-08-09 19:15:00,
2013-08-09 15:20:00,89.8,76.0,29.99,West,280,2.0,5.0,64,0.00,,,0.00,VWS V14.01,2013-08-09 19:20:00,
2013-08-09 15:25:00,89.8,76.5,29.99,WSW,251,3.0,5.0,65,0.00,,,0.00,VWS V14.01,2013-08-09 19:25:00,
2013-08-09 15:30:00,89.9,75.6,29.99,WSW,240,2.0,5.0,63,0.00,,,0.00,VWS V14.01,2013-08-09 19:30:00,
2013-08-09 15:35:00,89.4,76.6,29.99,SW,236,1.0,2.0,66,0.00,,,0.00,VWS V14.01,2013-08-09 19:35:00,
2013-08-09 15:40:00,89.2,75.4,29.99,SW,215,2.0,4.0,64,0.00,,,0.00,VWS V14.01,2013-08-09 19:40:00,
2013-08-09 15:45:00,89.3,75.1,29.98,WSW,242,4.0,8.0,63,0.00,,,0.00,VWS V14.01,2013-08-09 19:45:00,
2013-08-09 15:50:00,89.3,76.0,29.99,SW,229,3.0,8.0,65,0.00,,,0.00,VWS V14.01,2013-08-09 19:50:00,
2013-08-09 15:55:00,89.2,75.4,29.98,WSW,244,3.0,8.0,64,0.00,,,0.00,VWS V14.01,2013-08-09 19:55:00,
2013-08-09 16:00:00,89.5,75.2,29.99,SW,233,2.0,8.0,63,0.00,,,0.00,VWS V14.01,2013-08-09 20:00:00,
2013-08-09 16:05:00,89.7,75.0,29.98,WSW,254,2.0,4.0,62,0.00,,,0.00,VWS V14.01,2013-08-09 20:05:00,
2013-08-09 16:10:00,89.8,75.5,29.98,South,173,0.0,5.0,63,0.00,,,0.00,VWS V14.01,2013-08-09 20:10:00,
2013-08-09 16:15:00,90.1,76.3,29.97,WNW,296,1.0,6.0,64,0.00,,,0.00,VWS V14.01,2013-08-09 20:15:00,
2013-08-09 16:20:00,90.2,75.4,29.97,WSW,242,2.0,7.0,62,0.00,,,0.00,VWS V14.01,2013-08-09 20:20:00,
2013-08-09 16:25:00,90.0,74.8,29.97,SW,236,1.0,7.0,61,0.00,,,0.00,VWS V14.01,2013-08-09 20:25:00,
2013-08-09 16:30:00,90.2,75.4,29.97,SE,146,3.0,7.0,62,0.00,,,0.00,VWS V14.01,2013-08-09 20:30:00,
2013-08-09 16:35:00,90.2,75.9,29.97,SSW,205,1.0,4.0,63,0.00,,,0.00,VWS V14.01,2013-08-09 20:35:00,
2013-08-09 16:40:00,90.3,76.5,29.96,SW,224,3.0,5.0,64,0.00,,,0.00,VWS V14.01,2013-08-09 20:40:00,
2013-08-09 16:45:00,90.4,75.6,29.96,West,264,2.0,5.0,62,0.00,,,0.00,VWS V14.01,2013-08-09 20:45:00,
2013-08-09 16:50:00,90.6,76.3,29.96,SW,221,3.0,5.0,63,0.00,,,0.00,VWS V14.01,2013-08-09 20:50:00,
2013-08-09 16:55:00,90.6,75.3,29.97,WSW,248,1.0,5.0,61,0.00,,,0.00,VWS V14.01,2013-08-09 20:55:00,
2013-08-09 17:00:00,90.0,75.7,29.96,West,264,1.0,5.0,63,0.00,,,0.00,VWS V14.01,2013-08-09 21:00:00,
2013-08-09 17:05:00,90.0,75.2,29.96,SW,232,2.0,3.0,62,0.00,,,0.00,VWS V14.01,2013-08-09 21:05:00,
2013-08-09 17:10:00,90.1,75.3,29.97,SW,234,3.0,6.0,62,0.00,,,0.00,VWS V14.01,2013-08-09 21:10:00,
2013-08-09 17:15:00,90.1,75.3,29.97,WSW,237,1.0,6.0,62,0.00,,,0.00,VWS V14.01,2013-08-09 21:15:00,
2013-08-09 17:20:00,90.1,75.3,29.97,WSW,238,1.0,6.0,62,0.00,,,0.00,VWS V14.01,2013-08-09 21:20:00,
2013-08-09 17:25:00,89.9,75.6,29.97,SW,223,0.0,6.0,63,0.00,,,0.00,VWS V14.01,2013-08-09 21:25:00,
2013-08-09 17:30:00,89.7,75.9,29.97,West,265,1.0,6.0,64,0.00,,,0.00,VWS V14.01,2013-08-09 21:30:00,
2013-08-09 17:35:00,89.4,75.2,29.97,WSW,241,0.0,3.0,63,0.00,,,0.00,VWS V14.01,2013-08-09 21:35:00,
2013-08-09 17:40:00,89.2,75.0,29.97,SW,229,3.0,3.0,63,0.00,,,0.00,VWS V14.01,2013-08-09 21:40:00,
2013-08-09 17:45:00,88.7,75.4,29.97,WSW,245,0.0,4.0,65,0.00,,,0.00,VWS V14.01,2013-08-09 21:45:00,
2013-08-09 17:50:00,88.3,75.5,29.97,West,259,0.0,4.0,66,0.00,,,0.00,VWS V14.01,2013-08-09 21:50:00,
2013-08-09 17:55:00,88.2,75.9,29.97,WSW,248,1.0,4.0,67,0.00,,,0.00,VWS V14.01,2013-08-09 21:55:00,
2013-08-09 18:00:00,88.0,76.1,29.97,WSW,242,0.0,4.0,68,0.00,,,0.00,VWS V14.01,2013-08-09 22:00:00,
2013-08-09 18:05:00,87.7,75.8,29.97,WSW,241,0.0,0.0,68,0.00,,,0.00,VWS V14.01,2013-08-09 22:05:00,
2013-08-09 18:10:00,87.5,76.1,29.97,WSW,240,0.0,2.0,69,0.00,,,0.00,VWS V14.01,2013-08-09 22:10:00,
2013-08-09 18:15:00,87.2,75.8,29.97,SW,233,0.0,2.0,69,0.00,,,0.00,VWS V14.01,2013-08-09 22:15:00,
2013-08-09 18:20:00,87.0,76.0,29.96,WSW,242,0.0,2.0,70,0.00,,,0.00,VWS V14.01,2013-08-09 22:20:00,
2013-08-09 18:25:00,86.8,75.8,29.96,WSW,241,1.0,2.0,70,0.00,,,0.00,VWS V14.01,2013-08-09 22:25:00,
2013-08-09 18:30:00,86.5,76.0,29.96,WSW,240,0.0,2.0,71,0.00,,,0.00,VWS V14.01,2013-08-09 22:30:00,
2013-08-09 18:35:00,86.1,76.0,29.96,SW,236,0.0,1.0,72,0.00,,,0.00,VWS V14.01,2013-08-09 22:35:00,
2013-08-09 18:40:00,85.9,76.2,29.96,SSW,211,0.0,1.0,73,0.00,,,0.00,VWS V14.01,2013-08-09 22:40:00,
2013-08-09 18:45:00,85.8,76.2,29.96,SW,222,0.0,1.0,73,0.00,,,0.00,VWS V14.01,2013-08-09 22:45:00,
2013-08-09 18:50:00,85.5,76.3,29.96,SW,233,1.0,1.0,74,0.00,,,0.00,VWS V14.01,2013-08-09 22:50:00,
2013-08-09 18:55:00,85.4,76.2,29.96,SW,236,0.0,1.0,74,0.00,,,0.00,VWS V14.01,2013-08-09 22:55:00,
2013-08-09 19:00:00,85.4,76.2,29.96,WSW,242,0.0,1.0,74,0.00,,,0.00,VWS V14.01,2013-08-09 23:00:00,
2013-08-09 19:05:00,85.1,76.3,29.96,SW,233,0.0,0.0,75,0.00,,,0.00,VWS V14.01,2013-08-09 23:05:00,
2013-08-09 19:10:00,84.9,76.1,29.97,WSW,250,1.0,1.0,75,0.00,,,0.00,VWS V14.01,2013-08-09 23:10:00,
2013-08-09 19:15:00,84.7,76.3,29.97,WSW,242,0.0,1.0,76,0.00,,,0.00,VWS V14.01,2013-08-09 23:15:00,
2013-08-09 19:20:00,84.5,76.1,29.97,WNW,290,0.0,1.0,76,0.00,,,0.00,VWS V14.01,2013-08-09 23:20:00,
2013-08-09 19:25:00,84.5,76.5,29.97,NW,325,0.0,1.0,77,0.00,,,0.00,VWS V14.01,2013-08-09 23:25:00,
2013-08-09 19:30:00,84.6,76.6,29.98,WNW,294,0.0,1.0,77,0.00,,,0.00,VWS V14.01,2013-08-09 23:30:00,
2013-08-09 19:35:00,84.5,76.9,29.98,West,260,1.0,1.0,78,0.00,,,0.00,VWS V14.01,2013-08-09 23:35:00,
2013-08-09 19:40:00,84.2,76.6,29.98,West,260,0.0,1.0,78,0.00,,,0.00,VWS V14.01,2013-08-09 23:40:00,
2013-08-09 19:45:00,84.0,76.8,29.98,West,260,0.0,1.0,79,0.00,,,0.00,VWS V14.01,2013-08-09 23:45:00,
2013-08-09 19:50:00,83.8,77.0,29.98,WSW,248,0.0,1.0,80,0.00,,,0.00,VWS V14.01,2013-08-09 23:50:00,
2013-08-09 19:55:00,83.6,76.8,29.98,WSW,245,0.0,1.0,80,0.00,,,0.00,VWS V14.01,2013-08-09 23:55:00,
2013-08-09 20:00:00,83.4,77.0,29.98,WNW,298,1.0,2.0,81,0.00,,,0.00,VWS V14.01,2013-08-10 00:00:00,
2013-08-09 20:05:00,83.2,76.8,29.98,NW,311,1.0,2.0,81,0.00,,,0.00,VWS V14.01,2013-08-10 00:05:00,
2013-08-09 20:10:00,83.0,76.9,29.98,WNW,286,0.0,2.0,82,0.00,,,0.00,VWS V14.01,2013-08-10 00:10:00,
2013-08-09 20:15:00,82.8,76.8,29.98,WSW,244,1.0,2.0,82,0.00,,,0.00,VWS V14.01,2013-08-10 00:15:00,
2013-08-09 20:20:00,82.5,76.8,29.98,WSW,253,0.0,2.0,83,0.00,,,0.00,VWS V14.01,2013-08-10 00:20:00,
2013-08-09 20:25:00,82.3,76.6,29.99,WSW,253,0.0,2.0,83,0.00,,,0.00,VWS V14.01,2013-08-10 00:25:00,
2013-08-09 20:30:00,82.1,76.8,29.98,WSW,247,0.0,2.0,84,0.00,,,0.00,VWS V14.01,2013-08-10 00:30:00,
2013-08-09 20:35:00,81.9,76.6,29.98,WSW,247,0.0,0.0,84,0.00,,,0.00,VWS V14.01,2013-08-10 00:35:00,
2013-08-09 20:40:00,81.7,76.4,29.98,WSW,247,0.0,0.0,84,0.00,,,0.00,VWS V14.01,2013-08-10 00:40:00,
2013-08-09 20:45:00,81.5,75.8,29.99,WSW,248,0.0,0.0,83,0.00,,,0.00,VWS V14.01,2013-08-10 00:45:00,
2013-08-09 20:50:00,81.4,75.7,29.99,WSW,248,0.0,0.0,83,0.00,,,0.00,VWS V14.01,2013-08-10 00:50:00,
2013-08-09 20:55:00,81.4,75.7,29.99,WSW,248,0.0,0.0,83,0.00,,,0.00,VWS V14.01,2013-08-10 00:55:00,
2013-08-09 21:00:00,81.2,75.6,29.99,WSW,248,0.0,0.0,83,0.00,,,0.00,VWS V14.01,2013-08-10 01:00:00,
2013-08-09 21:05:00,81.0,75.7,29.99,WSW,248,0.0,0.0,84,0.00,,,0.00,VWS V14.01,2013-08-10 01:05:00,
2013-08-09 21:10:00,80.8,75.5,29.99,WSW,247,0.0,0.0,84,0.00,,,0.00,VWS V14.01,2013-08-10 01:10:00,
2013-08-09 21:15:00,80.6,75.3,30.00,SW,236,1.0,1.0,84,0.00,,,0.00,VWS V14.01,2013-08-10 01:15:00,
2013-08-09 21:20:00,80.6,75.0,30.00,SW,236,0.0,1.0,83,0.00,,,0.00,VWS V14.01,2013-08-10 01:20:00,
2013-08-09 21:25:00,80.5,74.5,30.00,SW,225,0.0,1.0,82,0.00,,,0.00,VWS V14.01,2013-08-10 01:25:00,
2013-08-09 21:30:00,80.4,74.4,30.00,WSW,245,0.0,1.0,82,0.00,,,0.00,VWS V14.01,2013-08-10 01:30:00,
2013-08-09 21:35:00,80.3,74.3,30.00,WSW,241,0.0,0.0,82,0.00,,,0.00,VWS V14.01,2013-08-10 01:35:00,
2013-08-09 21:40:00,80.1,74.1,30.00,WSW,240,0.0,1.0,82,0.00,,,0.00,VWS V14.01,2013-08-10 01:40:00,
2013-08-09 21:45:00,80.1,74.1,30.01,SW,225,0.0,1.0,82,0.00,,,0.00,VWS V14.01,2013-08-10 01:45:00,
2013-08-09 21:50:00,80.0,74.0,30.01,SW,232,0.0,1.0,82,0.00,,,0.00,VWS V14.01,2013-08-10 01:50:00,
2013-08-09 21:55:00,79.9,73.9,30.01,SW,232,0.0,1.0,82,0.00,,,0.00,VWS V14.01,2013-08-10 01:55:00,
2013-08-09 22:00:00,79.8,74.2,30.01,SW,222,0.0,1.0,83,0.00,,,0.00,VWS V14.01,2013-08-10 02:00:00,
2013-08-09 22:05:00,79.7,74.1,30.01,SW,222,0.0,0.0,83,0.00,,,0.00,VWS V14.01,2013-08-10 02:05:00,
2013-08-09 22:10:00,79.7,74.1,30.01,SW,223,0.0,0.0,83,0.00,,,0.00,VWS V14.01,2013-08-10 02:10:00,
2013-08-09 22:15:00,79.7,74.1,30.01,SW,224,0.0,0.0,83,0.00,,,0.00,VWS V14.01,2013-08-10 02:15:00,
2013-08-09 22:20:00,79.6,74.3,30.01,SW,225,0.0,0.0,84,0.00,,,0.00,VWS V14.01,2013-08-10 02:20:00,
2013-08-09 22:25:00,79.6,74.3,30.01,WSW,238,0.0,2.0,84,0.00,,,0.00,VWS V14.01,2013-08-10 02:25:00,
2013-08-09 22:30:00,79.5,74.6,30.01,SW,233,0.0,2.0,85,0.00,,,0.00,VWS V14.01,2013-08-10 02:30:00,
2013-08-09 22:35:00,79.5,74.6,30.01,SW,233,0.0,0.0,85,0.00,,,0.00,VWS V14.01,2013-08-10 02:35:00,
2013-08-09 22:40:00,79.4,74.5,30.01,SW,226,0.0,1.0,85,0.00,,,0.00,VWS V14.01,2013-08-10 02:40:00,
2013-08-09 22:45:00,79.4,74.8,30.01,SW,236,0.0,1.0,86,0.00,,,0.00,VWS V14.01,2013-08-10 02:45:00,
2013-08-09 22:50:00,79.4,74.8,30.02,WSW,246,0.0,1.0,86,0.00,,,0.00,VWS V14.01,2013-08-10 02:50:00,
2013-08-09 22:55:00,79.5,74.9,30.02,SW,233,0.0,1.0,86,0.00,,,0.00,VWS V14.01,2013-08-10 02:55:00,
2013-08-09 23:00:00,79.6,75.1,30.02,SW,232,0.0,1.0,86,0.00,,,0.00,VWS V14.01,2013-08-10 03:00:00,
2013-08-09 23:05:00,79.6,75.1,30.02,SW,233,0.0,0.0,86,0.00,,,0.00,VWS V14.01,2013-08-10 03:05:00,
2013-08-09 23:10:00,79.7,75.2,30.02,WSW,250,1.0,1.0,86,0.00,,,0.00,VWS V14.01,2013-08-10 03:10:00,
2013-08-09 23:15:00,79.8,75.2,30.02,SW,234,1.0,2.0,86,0.00,,,0.00,VWS V14.01,2013-08-10 03:15:00,
2013-08-09 23:20:00,80.0,75.1,30.02,SW,234,0.0,2.0,85,0.00,,,0.00,VWS V14.01,2013-08-10 03:20:00,
2013-08-09 23:25:00,80.2,75.3,30.02,WSW,254,1.0,3.0,85,0.00,,,0.00,VWS V14.01,2013-08-10 03:25:00,
2013-08-09 23:30:00,80.3,75.4,30.02,SW,229,1.0,3.0,85,0.00,,,0.00,VWS V14.01,2013-08-10 03:30:00,
2013-08-09 23:35:00,80.4,75.1,30.02,West,260,0.0,1.0,84,0.00,,,0.00,VWS V14.01,2013-08-10 03:35:00,
2013-08-09 23:40:00,80.4,75.1,30.02,WSW,246,1.0,2.0,84,0.00,,,0.00,VWS V14.01,2013-08-10 03:40:00,
2013-08-09 23:45:00,80.3,75.4,30.03,WSW,248,0.0,2.0,85,0.00,,,0.00,VWS V14.01,2013-08-10 03:45:00,
2013-08-09 23:50:00,80.1,75.2,30.03,West,259,0.0,2.0,85,0.00,,,0.00,VWS V14.01,2013-08-10 03:50:00,
2013-08-09 23:55:00,79.9,75.3,30.03,West,270,0.0,2.0,86,0.00,,,0.00,VWS V14.01,2013-08-10 03:55:00,